FDX1054 KSFO-KLAX

Flight info

Callsign FDX1054
Flight time 0h 54m
Altitude 35000
Route WESLA5 SUSEY EBAYE BURGL IRNMN2
Aircraft B77L/H-SDE1E2E3FGHIJ2J3J4J5M1RWXY/LB1D1

Departure

Time 2026-05-04 04:18
Airport San Francisco International Airport (KSFO)

Arrival

Time 2026-05-04 05:12
Airport Los Angeles International Airport (KLAX)
Time Latitude Longitude Altitude Speed Heading
2026-05-04 03:52 37.63765 -122.38877 25 ft 0 kts 90°
2026-05-04 04:06 37.63765 -122.38893 19 ft 4 kts 88°
2026-05-04 04:06 37.63763 -122.38926 12 ft 4 kts 82°
2026-05-04 04:06 37.63759 -122.38960 30 ft 4 kts 86°
2026-05-04 04:07 37.63760 -122.38990 30 ft 4 kts 115°
2026-05-04 04:07 37.63764 -122.39001 30 ft 0 kts 135°
2026-05-04 04:09 37.63738 -122.38968 30 ft 13 kts 135°
2026-05-04 04:09 37.63634 -122.38876 29 ft 21 kts 149°
2026-05-04 04:09 37.63511 -122.38818 27 ft 18 kts 200°
2026-05-04 04:10 37.63437 -122.38950 29 ft 20 kts 255°
2026-05-04 04:10 37.63386 -122.39104 28 ft 19 kts 245°
2026-05-04 04:10 37.63281 -122.39169 29 ft 18 kts 164°
2026-05-04 04:10 37.63189 -122.39162 27 ft 9 kts 223°
2026-05-04 04:11 37.63151 -122.39235 29 ft 11 kts 226°
2026-05-04 04:11 37.63069 -122.39243 28 ft 15 kts 161°
2026-05-04 04:11 37.62965 -122.39174 26 ft 19 kts 130°
2026-05-04 04:11 37.62893 -122.39011 26 ft 24 kts 117°
2026-05-04 04:12 37.62813 -122.38818 30 ft 24 kts 118°
2026-05-04 04:12 37.62736 -122.38636 30 ft 25 kts 118°
2026-05-04 04:12 37.62657 -122.38449 28 ft 24 kts 118°
2026-05-04 04:12 37.62575 -122.38253 27 ft 26 kts 117°
2026-05-04 04:13 37.62494 -122.38062 28 ft 21 kts 118°
2026-05-04 04:13 37.62423 -122.37891 28 ft 23 kts 118°
2026-05-04 04:13 37.62345 -122.37707 30 ft 25 kts 118°
2026-05-04 04:13 37.62266 -122.37519 30 ft 24 kts 118°
2026-05-04 04:14 37.62188 -122.37334 29 ft 24 kts 118°
2026-05-04 04:14 37.62113 -122.37155 30 ft 23 kts 118°
2026-05-04 04:14 37.62034 -122.36966 28 ft 25 kts 118°
2026-05-04 04:14 37.61950 -122.36764 30 ft 27 kts 117°
2026-05-04 04:15 37.61860 -122.36551 29 ft 28 kts 118°
2026-05-04 04:15 37.61773 -122.36343 28 ft 24 kts 117°
2026-05-04 04:15 37.61695 -122.36157 30 ft 25 kts 118°
2026-05-04 04:15 37.61611 -122.35959 29 ft 26 kts 118°
2026-05-04 04:16 37.61541 -122.35791 29 ft 22 kts 118°
2026-05-04 04:16 37.61473 -122.35682 29 ft 12 kts 160°
2026-05-04 04:16 37.61396 -122.35704 26 ft 12 kts 210°
2026-05-04 04:16 37.61384 -122.35794 29 ft 11 kts 296°
2026-05-04 04:17 37.61397 -122.35826 29 ft 0 kts 297°
2026-05-04 04:17 37.61458 -122.35972 30 ft 49 kts 298°
2026-05-04 04:17 37.61811 -122.36819 31 ft 169 kts 298°
2026-05-04 04:17 37.62511 -122.38402 533 ft 223 kts 297°
2026-05-04 04:18 37.63294 -122.40146 2054 ft 235 kts 298°
2026-05-04 04:18 37.64119 -122.41985 3480 ft 242 kts 297°
2026-05-04 04:18 37.64849 -122.43854 4644 ft 245 kts 294°
2026-05-04 04:18 37.65609 -122.45828 5604 ft 253 kts 295°
2026-05-04 04:19 37.66312 -122.47548 6469 ft 259 kts 295°
2026-05-04 04:19 37.66811 -122.48930 6989 ft 266 kts 284°
2026-05-04 04:19 37.66881 -122.51285 7658 ft 275 kts 252°
2026-05-04 04:20 37.66008 -122.53424 8611 ft 278 kts 225°
2026-05-04 04:20 37.64457 -122.54844 9659 ft 278 kts 199°
2026-05-04 04:20 37.61919 -122.55078 10822 ft 289 kts 166°
2026-05-04 04:20 37.59937 -122.54174 11129 ft 320 kts 155°
2026-05-04 04:21 37.58578 -122.53340 11295 ft 341 kts 153°
2026-05-04 04:21 37.56369 -122.51917 12072 ft 355 kts 153°
2026-05-04 04:21 37.54130 -122.50522 13061 ft 362 kts 154°
2026-05-04 04:21 37.51864 -122.49161 14121 ft 367 kts 154°
2026-05-04 04:22 37.49560 -122.47757 15032 ft 370 kts 150°
2026-05-04 04:22 37.47489 -122.45758 15502 ft 384 kts 135°
2026-05-04 04:22 37.45678 -122.43271 15957 ft 400 kts 133°
2026-05-04 04:22 37.43758 -122.40568 16734 ft 409 kts 133°
2026-05-04 04:23 37.41839 -122.37879 17593 ft 415 kts 133°
2026-05-04 04:23 37.40010 -122.35335 18422 ft 419 kts 133°
2026-05-04 04:23 37.38032 -122.32610 19217 ft 424 kts 133°
2026-05-04 04:23 37.36026 -122.29863 19990 ft 428 kts 134°
2026-05-04 04:24 37.34233 -122.27423 20661 ft 432 kts 134°
2026-05-04 04:24 37.32176 -122.24629 21380 ft 437 kts 134°
2026-05-04 04:24 37.30095 -122.21812 22120 ft 442 kts 134°
2026-05-04 04:24 37.27990 -122.18966 22853 ft 446 kts 134°
2026-05-04 04:25 37.25871 -122.16104 23565 ft 451 kts 134°
2026-05-04 04:25 37.23831 -122.13351 24114 ft 455 kts 134°
2026-05-04 04:25 37.21686 -122.10459 24664 ft 460 kts 134°
2026-05-04 04:25 37.19490 -122.07500 25206 ft 465 kts 134°
2026-05-04 04:26 37.17272 -122.04514 25745 ft 469 kts 135°
2026-05-04 04:26 37.15037 -122.01506 26257 ft 474 kts 135°
2026-05-04 04:26 37.12775 -121.98466 26731 ft 479 kts 135°
2026-05-04 04:26 37.10514 -121.95431 27109 ft 485 kts 135°
2026-05-04 04:27 37.08276 -121.92429 27549 ft 489 kts 135°
2026-05-04 04:27 37.05907 -121.89252 28095 ft 490 kts 136°
2026-05-04 04:27 37.03579 -121.86133 28720 ft 490 kts 136°
2026-05-04 04:27 37.01256 -121.83023 29356 ft 490 kts 136°
2026-05-04 04:28 36.98924 -121.79906 29988 ft 490 kts 136°
2026-05-04 04:28 36.96593 -121.76792 30504 ft 490 kts 137°
2026-05-04 04:28 36.94256 -121.73676 30965 ft 491 kts 137°
2026-05-04 04:28 36.91914 -121.70557 31427 ft 492 kts 137°
2026-05-04 04:29 36.89573 -121.67440 31885 ft 493 kts 138°
2026-05-04 04:29 36.87220 -121.64311 32326 ft 494 kts 138°
2026-05-04 04:29 36.84868 -121.61186 32763 ft 495 kts 139°
2026-05-04 04:29 36.82520 -121.58073 32913 ft 502 kts 139°
2026-05-04 04:30 36.77656 -121.51636 33039 ft 516 kts 139°
2026-05-04 04:30 36.75187 -121.48365 33249 ft 519 kts 139°
2026-05-04 04:30 36.72714 -121.45089 33651 ft 517 kts 139°
2026-05-04 04:31 36.70248 -121.41828 33979 ft 518 kts 140°
2026-05-04 04:31 36.67773 -121.38561 34229 ft 519 kts 140°
2026-05-04 04:31 36.65287 -121.35283 34485 ft 519 kts 140°
2026-05-04 04:31 36.62806 -121.32014 34792 ft 518 kts 140°
2026-05-04 04:32 36.60320 -121.28743 34967 ft 521 kts 140°
2026-05-04 04:32 36.57852 -121.25502 35005 ft 525 kts 140°
2026-05-04 04:32 36.52837 -121.18915 35010 ft 522 kts 140°
2026-05-04 04:33 36.47842 -121.12371 35005 ft 520 kts 140°
2026-05-04 04:33 36.42857 -121.05852 35007 ft 520 kts 140°
2026-05-04 04:34 36.38050 -120.99129 35012 ft 524 kts 137°
2026-05-04 04:34 36.33337 -120.92213 35012 ft 526 kts 137°
2026-05-04 04:35 36.28577 -120.85296 35007 ft 528 kts 137°
2026-05-04 04:35 36.23803 -120.78453 35009 ft 530 kts 138°
2026-05-04 04:36 36.18948 -120.71526 34998 ft 531 kts 138°
2026-05-04 04:36 36.14096 -120.64613 34990 ft 531 kts 138°
2026-05-04 04:37 36.04540 -120.51026 35004 ft 531 kts 138°
2026-05-04 04:38 35.99709 -120.44189 35010 ft 532 kts 138°
2026-05-04 04:38 35.94828 -120.37286 35017 ft 535 kts 138°
2026-05-04 04:39 35.89918 -120.30391 34996 ft 534 kts 140°
2026-05-04 04:39 35.84448 -120.24359 34986 ft 523 kts 150°
2026-05-04 04:40 35.78395 -120.19578 34977 ft 514 kts 157°
2026-05-04 04:40 35.72248 -120.15056 34987 ft 515 kts 156°
2026-05-04 04:41 35.66119 -120.10447 34984 ft 516 kts 156°
2026-05-04 04:41 35.60047 -120.05858 34980 ft 516 kts 156°
2026-05-04 04:42 35.53908 -120.01222 34973 ft 516 kts 157°
2026-05-04 04:42 35.47901 -119.96682 34850 ft 494 kts 157°
2026-05-04 04:43 35.44995 -119.94488 34753 ft 483 kts 158°
2026-05-04 04:43 35.42157 -119.92353 34585 ft 474 kts 158°
2026-05-04 04:43 35.39356 -119.90255 34337 ft 469 kts 158°
2026-05-04 04:43 35.36569 -119.88174 34114 ft 469 kts 158°
2026-05-04 04:44 35.33780 -119.86091 33877 ft 470 kts 158°
2026-05-04 04:44 35.30995 -119.84008 33614 ft 469 kts 158°
2026-05-04 04:44 35.28230 -119.81858 33341 ft 473 kts 154°
2026-05-04 04:44 35.25612 -119.79480 33075 ft 474 kts 151°
2026-05-04 04:45 35.23003 -119.77019 32817 ft 472 kts 151°
2026-05-04 04:45 35.20408 -119.74554 32545 ft 469 kts 150°
2026-05-04 04:45 35.17840 -119.72122 32272 ft 466 kts 150°
2026-05-04 04:47 35.02842 -119.58128 30743 ft 443 kts 149°
2026-05-04 04:47 35.00349 -119.55813 30491 ft 439 kts 149°
2026-05-04 04:47 34.97922 -119.53563 30258 ft 436 kts 149°
2026-05-04 04:47 34.95551 -119.51362 30017 ft 433 kts 148°
2026-05-04 04:48 34.93156 -119.49143 29738 ft 431 kts 148°
2026-05-04 04:49 34.83658 -119.40575 28330 ft 418 kts 149°
2026-05-04 04:49 34.81327 -119.38499 27803 ft 416 kts 149°
2026-05-04 04:49 34.79054 -119.36470 27333 ft 413 kts 149°
2026-05-04 04:49 34.76751 -119.34412 26877 ft 409 kts 149°
2026-05-04 04:50 34.74467 -119.32376 26435 ft 405 kts 149°
2026-05-04 04:50 34.72181 -119.30368 25993 ft 402 kts 150°
2026-05-04 04:50 34.69949 -119.28424 25562 ft 399 kts 150°
2026-05-04 04:50 34.67700 -119.26464 25130 ft 395 kts 149°
2026-05-04 04:51 34.65610 -119.24641 24731 ft 392 kts 149°
2026-05-04 04:51 34.63534 -119.22838 24354 ft 389 kts 150°
2026-05-04 04:51 34.61336 -119.20943 23956 ft 387 kts 149°
2026-05-04 04:51 34.59147 -119.19060 23586 ft 384 kts 149°
2026-05-04 04:52 34.56987 -119.17201 23146 ft 381 kts 149°
2026-05-04 04:52 34.54820 -119.15317 22564 ft 381 kts 149°
2026-05-04 04:52 34.52668 -119.13410 21938 ft 384 kts 148°
2026-05-04 04:52 34.50513 -119.11492 21363 ft 384 kts 148°
2026-05-04 04:53 34.48356 -119.09576 20792 ft 385 kts 148°
2026-05-04 04:53 34.46194 -119.07662 20204 ft 386 kts 148°
2026-05-04 04:53 34.44049 -119.05767 19625 ft 386 kts 148°
2026-05-04 04:53 34.41869 -119.03868 19151 ft 383 kts 148°
2026-05-04 04:54 34.39702 -119.01995 18701 ft 380 kts 148°
2026-05-04 04:54 34.37576 -119.00157 18496 ft 370 kts 148°
2026-05-04 04:54 34.35514 -118.98371 18293 ft 359 kts 148°
2026-05-04 04:54 34.33513 -118.96628 18046 ft 351 kts 147°
2026-05-04 04:55 34.31571 -118.94870 17684 ft 346 kts 146°
2026-05-04 04:55 34.29948 -118.93386 17305 ft 343 kts 146°
2026-05-04 04:55 34.27972 -118.91586 16799 ft 341 kts 146°
2026-05-04 04:55 34.26082 -118.89870 16383 ft 338 kts 146°
2026-05-04 04:56 34.24212 -118.88165 15973 ft 335 kts 146°
2026-05-04 04:56 34.22428 -118.86523 15561 ft 332 kts 146°
2026-05-04 04:56 34.20543 -118.84788 15152 ft 328 kts 146°
2026-05-04 04:56 34.18753 -118.83142 14983 ft 317 kts 146°
2026-05-04 04:57 34.17036 -118.81564 14846 ft 306 kts 146°
2026-05-04 04:57 34.15406 -118.79971 14639 ft 299 kts 142°
2026-05-04 04:57 34.13872 -118.78301 14346 ft 294 kts 141°
2026-05-04 04:57 34.12372 -118.76635 13988 ft 292 kts 140°
2026-05-04 04:58 34.10880 -118.74985 13613 ft 290 kts 141°
2026-05-04 04:58 34.09386 -118.73346 13221 ft 288 kts 141°
2026-05-04 04:58 34.07908 -118.71734 12867 ft 285 kts 141°
2026-05-04 04:58 34.06457 -118.70155 12668 ft 277 kts 141°
2026-05-04 04:59 34.05036 -118.68613 12390 ft 272 kts 141°
2026-05-04 04:59 34.03687 -118.67042 12008 ft 269 kts 131°
2026-05-04 04:59 34.02853 -118.65014 11509 ft 280 kts 109°
2026-05-04 04:59 34.02569 -118.62686 11170 ft 280 kts 101°
2026-05-04 05:00 34.02371 -118.60350 10819 ft 278 kts 101°
2026-05-04 05:00 34.02166 -118.58037 10450 ft 277 kts 102°
2026-05-04 05:00 34.01746 -118.53458 9800 ft 270 kts 102°
2026-05-04 05:01 34.01544 -118.51265 9685 ft 257 kts 102°
2026-05-04 05:01 34.01349 -118.49167 9537 ft 247 kts 103°
2026-05-04 05:01 34.01159 -118.47143 9316 ft 239 kts 103°
2026-05-04 05:01 34.01059 -118.45153 8928 ft 240 kts 90°
2026-05-04 05:02 34.01362 -118.43138 8468 ft 246 kts 82°
2026-05-04 05:02 34.01748 -118.41129 8092 ft 245 kts 82°
2026-05-04 05:02 34.02116 -118.39149 7734 ft 244 kts 82°
2026-05-04 05:02 34.02479 -118.37154 7374 ft 243 kts 80°
2026-05-04 05:03 34.02927 -118.35184 7027 ft 243 kts 78°
2026-05-04 05:03 34.03395 -118.33224 6668 ft 243 kts 77°
2026-05-04 05:04 34.04761 -118.27353 5653 ft 249 kts 77°
2026-05-04 05:04 34.05200 -118.25361 5485 ft 238 kts 77°
2026-05-04 05:04 34.05609 -118.23481 5461 ft 227 kts 77°
2026-05-04 05:06 34.03605 -118.12712 5314 ft 226 kts 170°
2026-05-04 05:06 34.02047 -118.12376 5325 ft 228 kts 171°
2026-05-04 05:06 34.00478 -118.12052 5204 ft 230 kts 171°
2026-05-04 05:07 33.98903 -118.11749 4936 ft 226 kts 176°
2026-05-04 05:07 33.97881 -118.11862 4724 ft 222 kts 200°
2026-05-04 05:07 33.96655 -118.12903 4493 ft 218 kts 234°
2026-05-04 05:09 33.94942 -118.26427 3170 ft 198 kts 262°
2026-05-04 05:09 33.94773 -118.28088 2492 ft 199 kts 262°
2026-05-04 05:10 33.94612 -118.29671 2094 ft 180 kts 263°
2026-05-04 05:10 33.94472 -118.31053 1965 ft 153 kts 262°
2026-05-04 05:10 33.94328 -118.32280 1736 ft 143 kts 261°
2026-05-04 05:10 33.94196 -118.33438 1418 ft 138 kts 262°
2026-05-04 05:11 33.94073 -118.34584 1137 ft 140 kts 262°
2026-05-04 05:11 33.93966 -118.35753 818 ft 141 kts 263°
2026-05-04 05:11 33.93863 -118.36925 496 ft 139 kts 264°
2026-05-04 05:11 33.93752 -118.38080 223 ft 137 kts 261°
2026-05-04 05:12 33.93643 -118.39179 129 ft 124 kts 263°
2026-05-04 05:12 33.93551 -118.40063 125 ft 89 kts 263°
2026-05-04 05:12 33.93528 -118.40423 127 ft 14 kts 257°
2026-05-04 05:12 33.93504 -118.40548 128 ft 18 kts 262°
2026-05-04 05:13 33.93478 -118.40697 124 ft 11 kts 232°
2026-05-04 05:13 33.93397 -118.40720 127 ft 12 kts 196°
2026-05-04 05:13 33.93353 -118.40812 127 ft 14 kts 260°
2026-05-04 05:13 33.93342 -118.40918 130 ft 14 kts 263°
2026-05-04 05:14 33.93330 -118.41049 129 ft 18 kts 263°
2026-05-04 05:14 33.93319 -118.41192 126 ft 11 kts 273°
2026-05-04 05:14 33.93304 -118.41217 125 ft 1 kts 192°
2026-05-04 05:14 33.93297 -118.41164 126 ft 17 kts 65°
2026-05-04 05:15 33.93331 -118.41028 128 ft 16 kts 79°
2026-05-04 05:15 33.93349 -118.40880 129 ft 19 kts 83°
2026-05-04 05:15 33.93366 -118.40704 126 ft 23 kts 83°
2026-05-04 05:15 33.93387 -118.40494 127 ft 27 kts 83°
2026-05-04 05:16 33.93409 -118.40275 126 ft 25 kts 83°
2026-05-04 05:16 33.93425 -118.40122 127 ft 16 kts 82°
2026-05-04 05:16 33.93440 -118.39988 127 ft 16 kts 82°
2026-05-04 05:16 33.93454 -118.39853 129 ft 16 kts 84°
2026-05-04 05:17 33.93466 -118.39718 125 ft 16 kts 84°
2026-05-04 05:17 33.93480 -118.39583 127 ft 16 kts 83°
2026-05-04 05:17 33.93493 -118.39449 130 ft 16 kts 83°
2026-05-04 05:17 33.93506 -118.39327 128 ft 14 kts 83°
2026-05-04 05:18 33.93517 -118.39214 128 ft 12 kts 83°
2026-05-04 05:18 33.93527 -118.39126 129 ft 10 kts 83°
2026-05-04 05:18 33.93536 -118.39038 126 ft 10 kts 83°
2026-05-04 05:18 33.93540 -118.39002 126 ft 2 kts 83°
2026-05-04 05:19 33.93542 -118.38983 128 ft 3 kts 83°
2026-05-04 05:19 33.93545 -118.38953 129 ft 5 kts 83°
2026-05-04 05:19 33.93548 -118.38907 126 ft 6 kts 90°
2026-05-04 05:19 33.93527 -118.38862 124 ft 7 kts 143°
2026-05-04 05:20 33.93476 -118.38848 127 ft 8 kts 173°
2026-05-04 05:20 33.93428 -118.38841 127 ft 3 kts 173°
2026-05-04 05:20 33.93419 -118.38840 127 ft 1 kts 173°
2026-05-04 05:20 33.93406 -118.38838 127 ft 0 kts 174°